When you browse on this site, cookies collect data to enhance your experience and personalize the content and advertising you see.
Visit our Privacy Policy to learn more. By continuing to use the site, you agree to this use of cookies and data.
  • In Switzerland
  • List of Countries
  • For 7 days
  • Water Temperature
  • Weather Map
  • Weather Widgets
  • user-avatar
    Login

    Hourly Weather Popovo

    Today, 20 August, Tuesday

    Time Temperature Precipitation Wind Pressure Humidity
    00:00 +17°C° 0 mm 2 mps 744 mmHg 94%
    01:00 +17°C° 0 mm 2 mps 744 mmHg 94%
    02:00 +16°C° 0 mm 2 mps 744 mmHg 95%
    03:00 +16°C° 0 mm 2 mps 744 mmHg 95%
    04:00 +16°C° 0 mm 2 mps 745 mmHg 94%
    05:00 +16°C° 0 mm 2 mps 745 mmHg 94%
    06:00 +17°C° 0.2 mm 2 mps 745 mmHg 90%
    07:00 +18°C° 0.2 mm 2 mps 745 mmHg 86%
    08:00 +20°C° 0.2 mm 2 mps 745 mmHg 83%
    09:00 +21°C° 0 mm 2 mps 745 mmHg 80%
    10:00 +23°C° 0 mm 1 mps 746 mmHg 77%
    11:00 +25°C° 0 mm 1 mps 746 mmHg 74%
    12:00 +25°C° 0.5 mm 1 mps 746 mmHg 76%
    13:00 +25°C° 0.5 mm 1 mps 746 mmHg 78%
    14:00 +25°C° 0.5 mm 1 mps 746 mmHg 80%
    15:00 +25°C° 0.6 mm 1 mps 746 mmHg 83%
    16:00 +24°C° 0.6 mm 1 mps 746 mmHg 85%
    17:00 +24°C° 0.6 mm 1 mps 746 mmHg 88%
    18:00 +21°C° 0.1 mm 0 mps 746 mmHg 90%
    19:00 +20°C° 0.1 mm 0 mps 746 mmHg 91%
    20:00 +19°C° 0.1 mm 0 mps 747 mmHg 93%
    21:00 +18°C° 0 mm 0 mps 747 mmHg 93%
    22:00 +18°C° 0 mm 0 mps 747 mmHg 94%
    23:00 +19°C° 0 mm 1 mps 747 mmHg 94%

    Tomorrow, 21 August, Wednesday

    Time Temperature Precipitation Wind Pressure Humidity
    00:00 +19°C° 0 mm 1 mps 747 mmHg 95%
    01:00 +19°C° 0 mm 1 mps 747 mmHg 95%
    02:00 +19°C° 0 mm 1 mps 747 mmHg 96%
    03:00 +18°C° 0.1 mm 1 mps 747 mmHg 96%
    04:00 +18°C° 0.1 mm 1 mps 747 mmHg 96%
    05:00 +18°C° 0.1 mm 1 mps 747 mmHg 97%
    06:00 +19°C° 0.3 mm 1 mps 747 mmHg 96%
    07:00 +20°C° 0.3 mm 1 mps 747 mmHg 95%
    08:00 +20°C° 0.3 mm 1 mps 747 mmHg 95%
    09:00 +22°C° 0.1 mm 1 mps 747 mmHg 91%
    10:00 +23°C° 0.1 mm 2 mps 747 mmHg 88%
    11:00 +24°C° 0.1 mm 2 mps 747 mmHg 85%
    12:00 +25°C° 0.2 mm 2 mps 747 mmHg 79%
    13:00 +26°C° 0.2 mm 2 mps 746 mmHg 74%
    14:00 +27°C° 0.2 mm 3 mps 746 mmHg 69%
    15:00 +27°C° 0.2 mm 3 mps 746 mmHg 71%
    16:00 +26°C° 0.2 mm 3 mps 745 mmHg 74%
    17:00 +26°C° 0.2 mm 2 mps 745 mmHg 77%
    18:00 +25°C° 0.5 mm 2 mps 745 mmHg 82%
    19:00 +23°C° 0.5 mm 2 mps 745 mmHg 87%
    20:00 +21°C° 0.5 mm 2 mps 744 mmHg 92%
    21:00 +20°C° 0.3 mm 2 mps 744 mmHg 93%
    22:00 +20°C° 0.3 mm 2 mps 744 mmHg 93%
    23:00 +19°C° 0.3 mm 3 mps 744 mmHg 94%

    Day after tomorrow, 22 August, Thursday

    Time Temperature Precipitation Wind Pressure Humidity
    00:00 +19°C° 0.3 mm 2 mps 744 mmHg 94%
    01:00 +19°C° 0.3 mm 2 mps 744 mmHg 95%
    02:00 +18°C° 0.3 mm 2 mps 745 mmHg 96%
    03:00 +18°C° 0.3 mm 2 mps 745 mmHg 96%
    04:00 +17°C° 0.3 mm 3 mps 745 mmHg 96%
    05:00 +17°C° 0.3 mm 3 mps 745 mmHg 97%
    06:00 +15°C° 0.2 mm 4 mps 745 mmHg 95%
    07:00 +15°C° 0.2 mm 4 mps 746 mmHg 94%
    08:00 +15°C° 0.2 mm 4 mps 746 mmHg 92%
    09:00 +17°C° 0 mm 4 mps 747 mmHg 86%
    10:00 +18°C° 0 mm 4 mps 747 mmHg 80%
    11:00 +19°C° 0 mm 3 mps 747 mmHg 73%
    12:00 +20°C° 0 mm 3 mps 747 mmHg 69%
    13:00 +21°C° 0 mm 3 mps 747 mmHg 64%
    14:00 +22°C° 0 mm 3 mps 747 mmHg 60%
    15:00 +22°C° 0 mm 3 mps 748 mmHg 63%
    16:00 +21°C° 0 mm 2 mps 748 mmHg 66%
    17:00 +21°C° 0 mm 2 mps 748 mmHg 69%
    18:00 +19°C° 0 mm 2 mps 748 mmHg 73%
    19:00 +17°C° 0 mm 2 mps 748 mmHg 78%
    20:00 +16°C° 0 mm 2 mps 748 mmHg 83%
    21:00 +15°C° 0 mm 2 mps 748 mmHg 84%
    22:00 +14°C° 0 mm 2 mps 749 mmHg 84%
    23:00 +13°C° 0 mm 2 mps 749 mmHg 85%

    23 August, Friday

    Time Temperature Precipitation Wind Pressure Humidity
    00:00 +13°C° 0 mm 2 mps 749 mmHg 86%
    01:00 +12°C° 0 mm 1 mps 749 mmHg 87%
    02:00 +12°C° 0 mm 1 mps 749 mmHg 88%
    03:00 +11°C° 0 mm 1 mps 749 mmHg 89%
    04:00 +11°C° 0 mm 1 mps 749 mmHg 90%
    05:00 +11°C° 0 mm 1 mps 749 mmHg 91%
    06:00 +13°C° 0 mm 1 mps 749 mmHg 84%
    07:00 +15°C° 0 mm 1 mps 749 mmHg 78%
    08:00 +18°C° 0 mm 1 mps 750 mmHg 71%
    09:00 +19°C° 0 mm 1 mps 750 mmHg 65%
    10:00 +21°C° 0 mm 1 mps 750 mmHg 60%
    11:00 +22°C° 0 mm 1 mps 750 mmHg 54%
    12:00 +22°C° 0 mm 1 mps 750 mmHg 52%
    13:00 +23°C° 0 mm 1 mps 749 mmHg 50%
    14:00 +23°C° 0 mm 1 mps 749 mmHg 49%
    15:00 +23°C° 0 mm 1 mps 749 mmHg 54%
    16:00 +22°C° 0 mm 1 mps 749 mmHg 60%
    17:00 +22°C° 0 mm 1 mps 749 mmHg 66%
    18:00 +20°C° 0 mm 1 mps 749 mmHg 73%
    19:00 +18°C° 0 mm 1 mps 749 mmHg 79%
    20:00 +15°C° 0 mm 1 mps 749 mmHg 85%
    21:00 +14°C° 0 mm 1 mps 749 mmHg 87%
    22:00 +14°C° 0 mm 1 mps 749 mmHg 89%
    23:00 +13°C° 0 mm 1 mps 750 mmHg 91%

    24 August, Saturday

    Time Temperature Precipitation Wind Pressure Humidity
    00:00 +13°C° 0 mm 1 mps 750 mmHg 92%
    01:00 +12°C° 0 mm 1 mps 750 mmHg 92%
    02:00 +12°C° 0 mm 1 mps 750 mmHg 93%
    03:00 +12°C° 0 mm 1 mps 750 mmHg 93%
    04:00 +12°C° 0 mm 1 mps 750 mmHg 93%
    05:00 +12°C° 0 mm 1 mps 750 mmHg 94%
    06:00 +14°C° 0 mm 1 mps 750 mmHg 87%
    07:00 +15°C° 0 mm 1 mps 750 mmHg 81%
    08:00 +18°C° 0 mm 1 mps 750 mmHg 74%
    09:00 +18°C° 0 mm 2 mps 750 mmHg 68%
    10:00 +20°C° 0 mm 2 mps 750 mmHg 62%
    11:00 +21°C° 0 mm 2 mps 750 mmHg 56%
    12:00 +23°C° 0 mm 2 mps 750 mmHg 54%
    13:00 +23°C° 0 mm 2 mps 749 mmHg 53%
    14:00 +23°C° 0 mm 2 mps 749 mmHg 52%
    15:00 +23°C° 0 mm 2 mps 749 mmHg 57%
    16:00 +23°C° 0 mm 2 mps 749 mmHg 62%
    17:00 +21°C° 0 mm 2 mps 748 mmHg 67%
    18:00 +19°C° 0 mm 2 mps 748 mmHg 74%
    19:00 +17°C° 0 mm 2 mps 748 mmHg 82%
    20:00 +16°C° 0 mm 2 mps 748 mmHg 89%
    21:00 +15°C° 0 mm 2 mps 748 mmHg 91%
    22:00 +15°C° 0 mm 2 mps 748 mmHg 93%
    23:00 +14°C° 0 mm 2 mps 748 mmHg 95%

    25 August, Sunday

    Time Temperature Precipitation Wind Pressure Humidity
    00:00 +14°C° 0 mm 2 mps 748 mmHg 96%
    01:00 +14°C° 0 mm 2 mps 748 mmHg 96%
    02:00 +14°C° 0 mm 2 mps 748 mmHg 96%
    03:00 +14°C° 0 mm 2 mps 748 mmHg 96%
    04:00 +13°C° 0 mm 2 mps 748 mmHg 96%
    05:00 +13°C° 0 mm 2 mps 747 mmHg 96%
    06:00 +15°C° 0 mm 2 mps 747 mmHg 91%
    07:00 +16°C° 0 mm 3 mps 747 mmHg 86%
    08:00 +18°C° 0 mm 3 mps 747 mmHg 81%
    09:00 +19°C° 0.1 mm 3 mps 747 mmHg 75%
    10:00 +21°C° 0.1 mm 3 mps 747 mmHg 70%
    11:00 +22°C° 0.1 mm 4 mps 747 mmHg 64%
    12:00 +22°C° 0.2 mm 4 mps 747 mmHg 64%
    13:00 +23°C° 0.2 mm 4 mps 747 mmHg 64%
    14:00 +23°C° 0.2 mm 4 mps 747 mmHg 64%
    15:00 +22°C° 0.3 mm 3 mps 746 mmHg 70%
    16:00 +21°C° 0.3 mm 3 mps 746 mmHg 77%
    17:00 +20°C° 0.3 mm 2 mps 746 mmHg 83%
    18:00 +18°C° 0 mm 2 mps 746 mmHg 87%
    19:00 +17°C° 0 mm 2 mps 746 mmHg 90%
    20:00 +16°C° 0 mm 1 mps 746 mmHg 94%
    21:00 +15°C° 0 mm 1 mps 746 mmHg 94%
    22:00 +15°C° 0 mm 1 mps 747 mmHg 95%
    23:00 +14°C° 0 mm 1 mps 747 mmHg 95%
    Show more